FW0743 Weather Reports


time (UTC)temp
F
wind
direction
speed
knots
gust
knots
rain 1hr
in
rain 24hr
in
rain mn
in
humidity
%
barometer
mb
20260903151518 73 343 2.6 8.7 0.00 0.19 0.00 85 1014.7
20260903150025 72 290 3.5 7.8 0.00 0.22 0.00 84 1014.7
20260903144530 71 308 3.5 8.7 0.00 0.26 0.00 86 1014.6
20260903143044 70 342 1.7 9.6 0.00 0.30 0.00 92 1014.6
20260903141517 69 240 0.9 8.7 0.00 0.33 0.00 96 1014.6
20260903140016 68 314 1.7 7.0 0.00 0.36 0.00 96 1014.6
20260903134503 68 313 1.7 5.2 0.00 0.36 0.00 98 1014.5
20260903133007 67 315 0.9 6.1 0.00 0.37 0.00 98 1014.5
20260903131513 66 265 0.9 3.5 0.00 0.40 0.00 98 1014.6
20260903130017 66 223 1.7 4.3 0.00 0.40 0.00 98 1014.6
20260903124517 66 287 0.0 1.7 0.00 0.40 0.00 98 1014.5
20260903123006 65 263 0.9 5.2 0.00 0.40 0.00 98 1014.4
20260903121508 65 264 0.9 3.5 0.00 0.40 0.00 99 1014.5
20260903120015 65 281 0.9 3.5 0.00 0.40 0.00 98 1014.5
20260903114520 65 267 0.9 2.6 0.00 0.40 0.00 99 1014.4
20260903113022 64 267 0.0 0.9 0.00 0.40 0.00 98 1014.1
20260903111508 64 267 0.0 2.6 0.00 0.40 0.00 98 1014.0
20260903110011 64 225 0.0 1.7 0.00 0.40 0.00 99 1013.8
20260903104520 64 180 0.0 0.9 0.00 0.40 0.00 98 1013.6
20260903103020 64 180 0.0 0.9 0.00 0.40 0.00 98 1013.7
20260903101527 64 180 0.0 0.9 0.00 0.40 0.00 98 1013.7
20260903100008 64 180 0.0 0.9 0.00 0.40 0.00 98 1013.7
20260903094514 64 180 0.0 1.7 0.00 0.40 0.00 98 1013.7
20260903093036 64 236 0.0 0.9 0.00 0.40 0.00 98 1013.8
20260903091532 64 236 0.0 2.6 0.00 0.40 0.00 98 1013.8
20260903090028 64 152 0.0 0.9 0.00 0.40 0.00 98 1013.7
20260903084533 64 152 0.9 2.6 0.00 0.40 0.00 98 1013.7
20260903083021 64 152 0.0 1.7 0.00 0.40 0.00 98 1013.5
20260903081528 64 152 0.0 1.7 0.00 0.40 0.00 98 1013.6
20260903080024 64 152 0.9 4.3 0.00 0.40 0.00 98 1013.6
20260903074509 64 221 0.0 1.7 0.00 0.40 0.00 98 1013.6
20260903073018 64 221 0.0 1.7 0.00 0.40 0.00 98 1014.0
20260903071524 64 221 0.0 1.7 0.00 0.40 0.00 98 1014.1
20260903070027 64 221 0.0 2.6 0.00 0.40 0.00 98 1014.2
20260903064526 64 221 0.9 1.7 0.00 0.40 0.00 98 1013.9
20260903063013 64 221 0.0 1.7 0.00 0.40 0.00 98 1013.9
20260903061528 64 221 0.0 0.9 0.00 0.40 0.00 98 1013.9
20260903060027 64 221 0.0 1.7 0.00 0.40 0.00 98 1013.9
20260903054527 64 221 0.0 0.9 0.00 0.40 0.00 98 1013.8
20260903053036 65 212 0.9 3.5 0.00 0.40 0.00 98 1013.7
20260903051518 65 182 1.7 4.3 0.00 0.40 0.00 98 1013.7
20260903050038 65 172 1.7 4.3 0.00 0.40 0.00 97 1013.6
20260903044529 65 167 2.6 4.3 0.00 0.40 0.00 97 1013.4
20260903043008 65 170 0.9 4.3 0.00 0.40 0.00 97 1013.6
20260903041518 66 169 1.7 5.2 0.00 0.40 0.00 97 1013.9
20260903040020 66 242 0.0 2.6 0.00 0.40 0.00 97 1014.2
20260903034533 66 257 1.7 6.1 0.00 0.40 0.40 97 1014.4
20260903033032 67 227 2.6 6.1 0.00 0.40 0.40 97 1014.0
20260903031512 67 208 0.0 3.5 0.00 0.40 0.40 97 1013.8
20260903030016 68 174 0.9 3.5 0.00 0.40 0.40 97 1013.3
20260903024523 68 169 1.7 4.3 0.01 0.40 0.40 97 1013.2
20260903023030 68 141 5.2 8.7 0.03 0.40 0.40 97 1012.4
20260903021532 68 171 6.1 10.4 0.05 0.40 0.40 97 1013.0
20260903020045 68 161 3.5 7.8 0.06 0.40 0.40 97 1014.0
20260903014517 68 196 1.7 8.7 0.07 0.39 0.39 97 1014.1
20260903013028 69 158 5.2 8.7 0.08 0.37 0.37 97 1014.1
20260903011530 69 186 3.5 7.8 0.08 0.35 0.35 96 1013.9
20260903010032 69 190 4.3 12.2 0.08 0.34 0.34 96 1013.3
20260903004516 69 157 3.5 7.8 0.06 0.32 0.32 95 1013.7
20260903003028 70 201 2.6 7.0 0.03 0.29 0.29 94 1014.5
20260903001533 71 159 1.7 9.6 0.01 0.27 0.27 92 1014.5
20260903000040 71 170 4.3 8.7 0.00 0.26 0.26 90 1013.9
20260902234512 72 171 2.6 7.8 0.00 0.26 0.26 89 1014.1
20260902233020 72 153 1.7 6.1 0.00 0.26 0.26 89 1013.9
20260902231534 72 170 3.5 6.1 0.00 0.26 0.26 88 1013.9
20260902230029 73 139 2.6 8.7 0.00 0.26 0.26 87 1013.7
20260902224531 73 142 4.3 10.4 0.00 0.26 0.26 87 1013.1
20260902223019 74 167 4.3 10.4 0.00 0.26 0.26 85 1013.4
20260902221539 75 179 4.3 8.7 0.00 0.26 0.26 84 1013.4
20260902220027 75 162 6.1 17.4 0.00 0.26 0.26 84 1012.6
20260902214533 76 165 5.2 13.9 0.00 0.26 0.26 83 1013.5
20260902213035 76 173 4.3 9.6 0.00 0.26 0.26 82 1014.2
20260902211523 77 178 0.9 4.3 0.00 0.26 0.26 83 1015.5
20260902210030 77 191 1.7 5.2 0.00 0.26 0.26 80 1015.9
20260902204531 77 173 1.7 7.0 0.00 0.26 0.26 78 1015.7
20260902203030 78 146 1.7 6.1 0.00 0.26 0.26 78 1015.6
20260902201519 78 178 1.7 7.8 0.00 0.26 0.26 77 1015.4
20260902200027 78 163 5.2 9.6 0.00 0.26 0.26 76 1015.2
20260902194505 77 153 3.5 9.6 0.00 0.26 0.26 78 1015.1
20260902193010 77 192 5.2 10.4 0.00 0.26 0.26 78 1015.3
20260902191518 76 162 2.6 10.4 0.00 0.26 0.26 78 1015.6
20260902190021 77 179 4.3 11.3 0.00 0.26 0.26 78 1015.7
20260902184530 76 171 4.3 13.0 0.00 0.26 0.26 80 1015.6
20260902183009 76 132 5.2 12.2 0.00 0.26 0.26 79 1016.0
20260902181514 76 221 4.3 13.0 0.00 0.26 0.26 80 1016.1
20260902180020 76 202 3.5 12.2 0.00 0.26 0.26 81 1015.9
20260902174531 75 185 5.2 11.3 0.00 0.26 0.26 81 1015.8
20260902173006 74 198 5.2 10.4 0.00 0.26 0.26 82 1015.9
20260902171513 73 149 5.2 10.4 0.00 0.26 0.26 84 1016.1
20260902170016 72 159 5.2 11.3 0.00 0.26 0.26 86 1016.1
20260902164522 71 202 4.3 10.4 0.00 0.26 0.26 88 1016.2
20260902163028 70 157 6.1 13.9 0.01 0.26 0.26 93 1015.8
20260902161507 68 161 3.5 10.4 0.05 0.26 0.26 98 1016.3
20260902160012 66 136 5.2 10.4 0.08 0.26 0.26 98 1016.4
20260902154533 66 188 2.6 10.4 0.12 0.26 0.26 98 1016.3
20260902153026 65 209 3.5 12.2 0.15 0.25 0.25 98 1016.2